RH
51 61 67 67 55 43 42 50 55 60 64 66 69 71 75 69 67 75 73 61 28 3 4 3 2 4 3 4 3 3 3 3 3 3 3 4 4 4 5 4 4 4 4 5 4 5 5 5 5 5 5 5 6 6 6 6 6 7 7 7 7 7 7 7 7 6 6 5 5 4 3 3 3 3 3 4 4 4 4 4 4 4 4 4 4 4 4 4
44 53 60 65 60 47 40 45 51 56 60 63 65 69 76 75 71 74 78 70 32 4 4 3 2 3 3 3 3 3 3 3 3 3 4 4 4 4 5 4 4 5 5 5 5 5 5 6 6 6 6 6 6 6 7 7 7 7 7 7 7 7 6 6 6 5 5 4 4 4 3 3 3 3 3 4 4 4 4 4 4 4 4 4 5 5 5 5
42 50 58 63 63 54 42 40 45 51 56 58 62 65 74 79 76 73 82 76 31 2 4 2 3 3 3 4 3 4 3 3 3 3 4 4 4 4 4 5 5 5 5 6 6 6 6 6 7 7 7 7 7 7 7 7 6 7 6 6 6 5 5 5 5 4 4 3 3 3 3 3 4 4 4 4 4 4 4 5 5 5 5 5 5 5 5 5
46 54 61 65 67 63 54 45 42 47 51 54 58 62 69 79 82 76 82 77 28 1 5 2 3 3 3 4 2 4 3 3 3 3 4 4 4 4 4 5 5 6 6 7 7 7 7 7 7 7 7 7 7 7 7 6 5 6 5 5 4 4 4 4 4 3 3 3 4 4 4 4 4 4 4 4 4 5 5 5 5 5 6 6 6 6 6 6
47 57 68 74 74 71 69 62 54 51 52 55 55 57 64 75 85 81 85 76 27 1 5 2 3 3 3 4 3 3 3 3 3 3 4 4 4 4 5 5 6 7 7 8 8 8 8 8 8 7 7 7 6 6 5 4 4 4 4 4 3 3 3 3 3 3 4 4 4 4 4 4 4 4 5 5 5 5 5 5 6 6 6 7 6 7 7 7
50 61 72 80 82 79 78 74 70 64 60 60 56 56 60 70 83 89 92 69 20 1 5 3 3 3 3 3 3 3 3 3 3 3 3 3 4 4 5 6 7 7 7 8 8 8 8 8 7 6 6 5 5 4 4 3 3 3 3 3 3 3 4 3 4 4 4 4 4 4 4 5 4 5 5 5 5 5 6 6 6 7 7 7 7 7 7 8
55 66 75 82 86 86 83 79 75 67 65 64 63 64 60 66 78 94 98 53 8 4 5 3 3 3 3 3 3 3 3 3 3 3 3 3 4 4 5 6 8 8 8 8 8 8 8 7 6 5 5 4 4 3 3 3 3 3 3 3 3 3 4 4 4 4 4 4 4 4 4 5 4 5 5 5 6 6 6 6 6 7 7 8 8 8 8 8
66 74 82 90 92 91 90 86 77 65 62 60 64 69 69 72 72 88 93 39 1 6 4 3 3 2 4 3 3 3 3 3 3 3 3 4 4 4 5 7 8 8 8 8 8 8 6 5 4 4 4 3 4 3 3 3 3 4 3 4 4 4 4 4 4 4 4 4 4 4 4 4 4 5 5 5 6 6 6 7 7 7 8 8 8 9 9 9
82 89 93 99 97 91 89 85 77 68 65 66 73 79 83 84 77 86 78 25 1 7 3 3 3 2 4 3 4 4 3 3 3 4 3 4 4 4 6 7 8 8 9 9 8 7 5 5 4 4 3 3 4 3 3 4 4 4 3 4 4 4 4 4 4 4 4 4 4 4 4 4 5 5 5 6 6 7 7 7 8 8 8 9 9 10 10 10
87 96 99 101 96 88 85 82 80 79 81 82 85 88 90 92 91 87 55 12 4 7 3 4 2 3 3 3 4 3 4 3 3 4 3 4 4 5 6 8 9 9 9 9 7 5 4 4 4 3 3 3 4 3 4 4 4 4 4 4 4 4 4 4 4 3 3 4 4 4 5 5 5 6 6 7 7 7 8 8 9 9 9 10 10 10 11 11
91 95 99 99 95 94 92 92 91 90 92 90 87 88 88 91 88 63 26 6 6 5 4 4 2 4 3 3 4 3 4 3 3 3 3 4 4 5 7 8 9 9 9 8 6 5 4 4 4 4 4 4 4 4 4 4 4 4 4 4 4 4 4 4 4 4 5 5 5 5 6 7 6 6 7 7 8 8 9 9 9 10 10 10 11 11 12 12
95 98 100 98 96 99 98 97 95 91 94 92 88 89 83 76 61 31 9 6 5 5 4 3 3 3 3 4 3 4 4 3 3 3 4 4 4 6 8 8 9 10 9 7 5 4 4 4 4 4 4 4 4 4 4 4 4 4 4 4 4 4 4 5 5 5 6 6 6 6 7 9 8 8 9 9 9 10 10 11 10 11 11 12 12 13 14 14
88 101 99 96 91 90 89 88 89 92 94 92 91 90 78 59 35 12 6 6 5 6 4 3 4 3 3 4 4 4 4 3 3 3 4 4 4 6 8 9 10 10 8 6 5 4 4 5 4 5 4 4 4 4 4 4 4 4 5 5 5 5 5 5 6 6 7 7 8 8 9 12 11 10 11 11 11 12 13 12 11 12 13 13 14 15 16 16
66 97 97 95 90 82 81 83 90 96 93 90 91 87 76 53 25 9 7 6 5 5 4 3 3 3 4 4 4 4 4 4 4 3 4 4 5 7 8 10 10 9 8 6 6 5 5 5 5 5 5 5 5 4 5 5 5 5 5 5 5 5 6 6 7 8 9 10 11 10 11 16 15 12 11 12 13 14 15 14 13 14 15 15 16 17 19 19
38 82 95 93 92 86 83 88 96 95 89 90 90 81 66 41 17 8 7 6 6 5 4 4 3 4 4 4 5 4 4 4 4 4 4 4 6 8 9 10 10 9 8 7 7 6 6 6 6 6 5 5 6 5 5 5 5 6 5 6 6 6 7 8 9 10 11 12 12 11 12 17 17 13 12 12 14 16 17 15 14 16 17 17 19 20 22 23
17 58 88 91 91 93 91 96 100 89 85 89 86 73 49 22 8 6 6 6 6 5 3 3 3 4 4 4 5 4 5 4 4 5 4 5 6 8 9 9 10 9 8 8 8 8 7 8 7 7 7 7 7 7 7 7 8 8 7 8 9 9 9 10 10 11 11 12 13 12 12 18 18 14 12 12 13 16 16 17 17 18 19 20 22 24 25 27
7 35 77 90 89 93 95 100 100 86 85 85 76 68 44 16 7 5 6 6 5 5 4 4 4 4 4 5 5 4 5 4 4 5 5 6 7 8 9 9 10 10 9 9 8 9 8 8 8 8 8 9 9 9 9 10 10 9 9 9 10 11 11 11 12 12 12 13 14 12 13 18 18 14 13 13 13 15 17 18 18 20 21 23 26 27 29 32
5 16 57 89 91 94 98 101 99 89 88 83 72 66 40 12 6 5 6 7 5 5 3 4 4 4 5 5 5 5 5 5 5 5 5 7 8 9 10 10 10 10 10 10 9 9 9 9 9 9 9 9 10 10 10 10 9 9 10 10 11 13 13 11 12 13 13 14 15 13 13 17 18 16 15 14 13 15 18 18 19 22 25 26 28 31 34 36
6 5 34 80 97 97 100 101 99 93 90 83 72 62 31 6 6 5 6 7 5 5 3 4 5 4 6 5 6 5 5 6 5 5 6 6 8 9 10 10 10 11 10 10 10 10 9 9 9 9 9 9 9 9 9 9 8 9 9 10 11 13 15 13 13 14 13 14 16 14 14 17 17 16 17 15 14 15 16 17 20 25 28 30 33 36 38 40
7 3 15 62 97 101 100 102 99 97 96 84 70 55 24 5 7 5 6 7 5 5 4 5 5 5 6 5 6 6 5 6 5 6 6 7 9 9 10 11 10 10 10 10 10 9 9 9 9 9 8 8 8 8 8 8 8 9 9 11 11 12 15 15 14 14 13 13 16 15 15 18 17 15 15 14 14 15 16 18 22 27 31 34 37 40 42 44
5 5 6 44 91 101 99 102 99 100 100 86 68 49 20 5 6 5 7 7 4 5 4 5 5 5 6 5 6 6 6 6 6 6 7 8 9 9 10 10 10 10 10 10 10 9 9 9 8 8 8 8 8 7 8 8 8 9 10 11 12 12 13 15 14 15 14 13 15 13 14 19 20 16 14 13 13 15 18 21 25 31 35 39 41 44 46 47
4 6 4 31 80 99 99 101 100 100 97 83 66 43 16 5 6 9 11 8 5 5 5 5 5 5 6 5 6 6 6 7 7 8 8 9 10 10 10 10 10 10 9 9 9 9 9 8 9 8 8 8 7 8 8 8 8 9 10 11 13 13 12 14 15 15 15 13 13 11 10 16 21 19 15 14 13 16 22 25 29 34 38 43 46 47 49 51
3 6 4 26 74 98 100 101 99 100 96 82 67 40 12 7 13 16 15 8 5 5 5 5 5 5 6 5 6 6 7 7 8 9 9 10 10 10 11 10 10 10 9 9 9 9 9 8 8 8 8 8 7 8 8 9 10 10 11 12 13 14 13 14 15 16 16 14 11 9 7 11 21 23 16 13 15 18 25 29 31 35 42 49 50 49 51 54
4 6 5 27 73 96 99 102 99 100 100 87 71 47 25 21 24 20 11 6 5 5 5 6 5 6 6 6 7 7 8 8 9 10 10 10 10 10 11 10 10 10 9 9 9 9 8 8 8 8 8 8 8 9 9 10 11 12 13 13 14 15 15 14 14 14 14 14 12 9 6 6 18 26 16 13 17 20 27 32 33 39 47 51 52 53 56 58
6 8 17 44 81 98 99 101 101 100 99 88 73 57 42 34 27 16 8 6 6 5 5 6 6 7 7 7 8 8 9 10 9 10 10 10 10 10 10 10 9 9 9 9 8 8 8 8 8 8 8 9 9 10 10 11 12 14 15 15 15 15 16 15 13 12 11 12 11 9 6 3 14 27 20 16 20 22 27 32 37 47 51 53 57 61 63 63
13 21 48 81 95 99 100 100 101 96 89 79 65 51 38 28 19 10 8 6 5 6 6 7 7 7 8 8 9 10 10 10 10 10 10 10 10 10 10 9 9 8 8 8 8 8 8 8 8 9 9 10 10 11 12 12 13 15 16 16 16 15 15 14 13 12 10 9 9 9 9 4 12 27 22 20 25 24 27 35 44 53 53 56 64 68 71 70
31 49 74 98 100 100 102 100 98 91 78 61 43 32 23 15 11 9 8 6 5 7 6 7 8 8 9 10 11 10 10 10 10 9 10 9 9 9 8 8 8 8 8 7 8 8 8 9 9 10 11 11 12 12 13 14 14 16 17 17 17 15 15 13 12 12 9 8 8 9 13 9 14 29 24 20 26 25 30 43 51 53 54 59 68 72 75 75
62 85 89 92 92 92 94 97 100 94 76 49 26 18 13 9 10 10 7 6 7 9 7 8 8 8 10 10 10 10 9 9 9 9 9 8 8 8 7 7 8 7 7 7 8 9 9 10 11 11 12 12 13 14 15 16 16 17 17 17 17 15 14 13 11 11 8 8 9 10 15 11 16 37 35 23 24 24 32 50 55 54 58 63 66 69 72 75
84 102 98 92 90 87 88 93 100 96 76 44 18 11 12 14 14 10 8 9 12 12 9 7 8 9 10 10 9 9 9 8 8 8 8 7 7 7 7 7 7 7 8 8 9 10 10 11 11 11 12 13 14 15 16 17 18 18 17 16 16 14 14 13 11 9 6 7 9 10 15 13 17 39 43 29 26 27 37 56 62 60 63 64 64 68 72 73
92 99 100 98 96 95 94 95 98 90 66 35 17 16 22 25 21 16 14 14 14 13 10 7 7 8 9 9 9 8 8 8 7 7 7 7 7 7 7 7 8 8 9 9 10 10 11 11 12 12 13 14 15 17 17 19 19 18 18 16 15 14 13 11 8 8 6 6 9 9 13 16 22 39 48 41 35 34 47 64 67 64 65 67 68 72 74 71
100 97 96 93 90 90 89 90 92 81 57 36 30 32 33 32 29 27 22 17 14 11 11 10 8 8 8 9 8 8 8 7 7 7 7 7 7 7 8 8 9 9 9 10 10 11 11 12 13 14 15 15 17 18 19 19 19 19 19 17 15 14 11 9 6 6 6 6 9 10 12 17 27 45 56 53 50 53 63 69 67 65 67 68 69 73 75 72
101 94 86 78 75 72 67 70 73 68 60 51 45 40 34 30 28 26 19 13 11 8 9 11 9 9 9 8 8 8 8 7 7 7 7 7 7 8 9 9 10 10 9 10 10 11 12 13 15 15 16 17 18 20 20 20 20 19 20 18 17 13 8 6 5 6 8 8 10 11 13 17 28 50 62 64 74 82 80 69 60 62 64 59 60 70 79 83
98 88 72 59 54 49 44 49 55 57 56 49 39 30 24 20 16 13 10 8 8 7 8 10 10 9 9 8 9 8 7 7 7 7 7 7 8 9 10 10 11 11 10 11 11 12 12 13 16 16 18 19 20 21 21 20 20 20 20 19 17 15 10 8 7 8 9 10 10 10 14 18 26 50 69 79 94 96 82 69 59 58 57 49 52 69 86 93
92 82 66 52 43 36 35 44 50 50 45 37 28 23 19 16 11 9 8 7 6 6 7 8 9 9 9 8 8 7 7 7 7 7 7 8 9 10 11 11 12 12 12 12 12 12 12 13 16 17 19 20 21 22 21 21 20 20 20 18 17 17 16 13 12 13 11 10 11 11 15 19 28 52 76 89 97 89 76 74 68 61 57 51 57 75 90 90
81 70 59 50 44 42 43 49 51 46 39 33 28 25 22 19 15 12 9 6 6 7 7 8 8 8 8 7 7 7 7 7 7 8 8 9 10 10 12 12 13 14 14 14 14 12 12 13 16 17 19 20 21 22 21 22 20 17 16 16 16 16 17 18 17 17 17 12 11 12 13 18 29 53 81 95 94 83 74 73 67 62 63 65 70 79 85 81
80 72 66 62 58 57 55 52 47 40 35 32 29 25 20 16 12 9 7 6 7 6 7 7 7 7 7 7 7 7 7 7 7 8 9 10 11 11 13 13 14 15 15 15 15 14 14 14 16 17 18 20 21 21 21 21 19 16 15 16 17 16 17 21 19 18 19 14 12 13 11 18 30 50 79 94 87 77 71 64 60 64 69 70 67 67 69 69
79 75 70 65 58 52 47 40 33 29 26 24 21 16 12 9 8 7 7 7 7 7 7 7 7 7 7 7 7 7 7 7 8 9 10 11 11 12 14 14 15 16 16 16 15 16 15 14 15 17 19 20 19 19 19 19 18 17 17 18 19 18 18 22 22 19 20 16 13 13 12 19 33 48 71 80 68 59 57 53 56 63 63 58 52 53 57 59
65 59 50 43 35 29 27 25 22 21 18 14 12 9 8 7 7 7 7 7 7 8 8 7 7 7 7 7 7 7 7 8 9 10 11 11 12 13 14 15 16 16 16 16 16 16 16 14 14 15 17 17 16 15 16 17 17 17 18 20 22 23 23 24 25 24 23 18 13 14 14 18 35 53 62 58 47 42 41 42 48 52 49 46 43 44 48 52
51 41 31 26 21 15 15 16 16 15 12 9 9 7 8 8 7 8 8 8 8 8 8 8 7 7 7 7 7 7 8 9 11 11 11 12 13 14 15 15 15 15 16 16 16 16 15 13 11 10 12 14 13 14 15 17 17 17 19 23 25 27 28 27 26 27 30 24 17 19 15 14 36 58 56 45 38 36 34 33 38 41 42 42 41 42 45 49
37 26 18 16 14 12 13 13 13 12 10 9 8 8 8 8 8 8 8 8 8 8 8 8 7 7 7 7 7 8 9 10 11 11 12 13 14 15 15 15 15 15 15 14 14 13 11 9 8 8 10 12 13 15 17 17 18 18 21 25 28 31 30 26 23 27 35 30 26 29 16 12 42 63 51 41 38 34 32 31 33 38 41 42 44 46 49 53
26 16 12 11 11 12 13 13 13 12 10 10 9 9 9 9 9 9 8 8 8 8 8 8 8 8 7 8 9 9 10 11 11 12 12 14 14 14 14 13 13 12 11 10 10 9 8 7 7 9 11 13 15 17 18 18 19 21 25 29 32 34 32 25 19 24 34 35 37 39 20 17 52 64 48 40 38 34 35 35 35 39 43 45 48 52 58 64
24 19 16 15 14 14 14 13 12 11 10 10 9 9 9 9 9 9 8 8 8 8 8 8 8 8 8 9 10 11 11 11 11 12 12 13 13 12 11 10 9 8 8 8 8 9 9 9 9 10 11 13 16 18 19 20 21 25 29 32 32 32 31 26 23 28 35 37 42 40 21 23 51 55 42 38 36 35 38 39 40 44 47 51 58 64 71 75
29 28 26 23 20 16 13 12 12 11 10 10 9 9 9 9 9 8 8 8 8 8 8 8 9 9 10 11 11 11 11 10 11 11 11 11 10 9 8 8 7 8 8 8 9 10 10 10 10 10 11 14 17 20 21 21 22 26 29 31 31 30 28 29 33 36 34 35 43 36 19 23 38 39 35 36 35 37 41 43 48 52 57 66 72 77 83 86
30 29 26 22 18 14 13 12 12 11 10 10 9 9 9 8 8 8 8 8 8 9 9 9 10 10 11 11 11 11 11 10 10 9 9 8 7 7 7 8 8 9 9 9 10 10 11 12 13 12 11 12 14 17 19 19 21 25 30 34 33 31 31 33 37 36 28 31 40 34 21 22 28 30 33 35 37 43 50 55 61 67 75 82 83 84 86 83
25 20 16 15 14 14 13 12 11 10 10 10 10 9 9 9 9 9 9 10 10 10 10 10 11 11 11 11 10 10 9 9 8 7 7 7 7 8 8 8 9 9 10 10 10 10 12 14 16 15 14 14 14 14 15 16 20 28 36 39 33 30 33 34 35 34 28 26 30 29 26 27 29 32 37 43 50 58 64 68 74 81 90 91 85 77 65 52
16 11 11 13 13 13 12 11 11 11 11 11 11 10 10 10 11 11 11 11 10 10 10 10 10 10 10 9 9 8 7 7 7 7 7 8 8 8 9 9 10 10 10 10 10 11 12 14 16 16 17 19 20 20 19 19 24 33 39 35 27 24 28 30 31 31 27 22 23 27 30 35 40 45 51 59 66 71 72 75 79 83 81 72 58 45 32 24
11 11 13 14 14 13 12 12 12 11 11 12 11 11 11 11 11 11 11 11 10 10 10 9 9 9 8 8 7 7 7 7 8 8 8 9 9 9 9 9 10 10 10 10 11 12 12 13 16 17 20 23 24 25 26 24 28 34 32 25 20 19 21 25 27 26 23 23 29 35 39 47 56 62 66 72 74 76 77 75 70 60 48 36 26 20 16 15
12 14 15 15 13 13 12 12 12 12 12 12 11 11 11 10 10 10 10 10 9 9 8 8 8 7 7 7 7 7 8 8 9 9 9 9 9 9 10 10 10 10 11 11 12 12 12 13 15 16 21 28 28 26 26 26 27 28 22 16 15 16 18 22 23 24 27 34 44 52 57 65 72 72 74 80 84 82 73 58 43 31 22 17 15 13 12 10
15 16 15 14 13 12 12 12 11 11 11 10 10 10 9 9 9 9 8 8 7 7 7 7 7 7 7 8 8 8 9 9 10 10 10 10 10 10 9 10 10 11 11 12 13 13 12 14 15 14 18 25 26 21 19 19 20 20 16 14 15 18 21 26 29 35 45 56 65 69 69 74 81 82 79 80 78 64 45 30 21 16 14 12 11 9 9 8
15 15 14 13 13 12 11 11 10 10 9 9 9 8 8 8 7 7 7 7 7 7 7 8 8 9 9 10 11 11 11 11 11 11 10 10 9 9 9 10 11 11 12 12 12 13 12 12 12 9 10 16 16 13 13 13 14 16 16 17 21 27 34 43 53 64 73 76 77 77 76 78 83 80 70 59 45 30 20 16 14 12 10 9 9 9 8 7
14 13 13 12 12 11 10 10 9 8 8 8 7 7 7 7 7 8 8 8 8 9 10 11 11 12 13 13 14 13 13 12 12 11 10 9 9 9 9 10 10 10 11 10 10 10 9 9 9 8 8 11 11 11 14 15 17 21 24 29 38 49 59 69 79 89 90 80 76 79 81 77 68 55 42 31 22 16 14 12 10 9 9 8 8 7 7 7
13 12 11 10 9 9 8 8 7 7 7 7 8 7 8 8 8 9 10 11 12 12 13 15 15 16 16 16 16 15 14 14 13 11 10 9 9 9 9 9 9 9 9 9 9 9 9 9 9 9 9 10 12 16 19 23 29 35 40 50 62 71 76 78 86 98 100 90 83 79 69 54 40 28 22 19 17 15 12 10 9 9 8 7 7 7 8 9
Wind_Speed
27 26 25 24 22 21 21 22 21 20 18 16 14 12 11 10 8 7 8 8 9 12 12 12 13 13 12 11 11 11 12 11 9 8 6 5 5 4 1 2 3 3 4 4 5 5 6 7 7 8 8 9 9 10 10 11 11 12 12 13 13 14 14 15 16 16 16 16 17 17 18 18 19 20 21 22 23 24 26 27 28 29 30 31 32 33 34 34
26 25 25 25 23 22 22 22 22 21 19 17 15 14 12 12 10 9 9 10 11 13 13 13 14 13 12 12 12 11 11 10 8 7 6 5 4 2 2 4 4 4 5 5 6 7 7 8 9 9 10 10 11 11 12 12 12 13 14 14 14 14 14 15 15 16 15 16 17 17 18 18 20 21 21 23 24 25 26 27 28 30 31 32 33 34 35 36
24 25 25 25 24 23 22 22 22 22 20 19 17 15 14 13 12 11 12 13 13 14 14 13 13 13 12 11 11 11 10 9 7 6 5 5 3 2 4 5 5 5 5 6 7 8 9 10 11 11 12 12 13 13 13 13 13 14 14 15 14 13 14 14 15 15 16 16 17 18 18 19 20 21 23 24 25 26 28 28 29 31 32 33 34 35 36 37
24 25 26 26 25 24 24 23 23 22 22 20 19 17 16 15 15 13 13 14 14 14 13 12 12 12 11 10 10 10 9 8 7 6 5 5 3 2 5 6 6 5 6 7 8 10 11 11 12 13 13 14 14 14 14 14 13 14 14 13 13 12 13 14 15 15 16 17 18 18 19 20 21 23 24 26 27 28 29 30 31 32 33 34 35 36 37 38
23 25 27 27 26 26 26 25 25 24 23 22 20 19 18 18 17 15 14 14 14 14 13 11 12 11 10 9 9 9 9 8 7 7 6 5 4 4 6 7 6 6 8 9 10 11 12 13 14 14 14 15 15 15 14 14 12 12 12 11 11 12 13 14 15 16 17 18 19 20 21 22 23 24 25 27 28 29 30 31 32 33 34 35 36 37 37 39
23 25 27 27 27 27 27 27 26 25 24 23 22 21 20 19 19 17 16 15 15 14 12 11 12 11 10 10 9 9 9 7 7 7 7 6 5 6 7 7 7 8 10 11 13 13 13 14 15 15 15 15 14 14 13 12 11 11 11 11 12 13 14 15 16 17 18 20 21 22 23 24 24 25 27 29 30 30 32 32 33 34 35 36 37 38 38 39
22 24 26 26 27 27 27 27 27 25 25 24 24 23 22 20 21 20 17 17 16 15 13 12 13 12 11 10 10 9 9 8 8 8 8 7 7 7 8 7 8 10 12 13 14 15 15 15 15 15 14 14 13 12 12 11 11 11 12 12 13 14 15 16 18 19 20 22 23 24 26 27 27 28 29 31 31 31 33 34 35 36 36 37 38 39 39 40
21 23 24 25 26 27 26 26 26 25 24 23 23 23 23 23 24 23 19 19 17 15 14 14 13 12 12 11 9 8 9 10 9 8 8 8 8 8 8 8 9 12 14 15 15 16 16 15 14 14 13 12 12 12 11 11 12 12 13 14 15 16 18 18 20 22 23 24 25 27 28 29 30 30 31 33 33 33 34 35 36 37 38 38 39 40 40 42
19 21 23 24 25 26 25 24 24 23 21 21 21 21 23 24 27 26 21 20 18 15 14 14 13 12 12 10 9 8 9 10 10 8 8 8 9 9 9 9 11 13 14 15 16 16 15 14 14 13 12 12 12 12 12 12 13 14 15 16 17 19 20 21 23 24 25 26 27 28 29 30 32 33 33 35 35 35 36 36 38 39 39 40 40 41 41 43
15 18 20 21 22 23 23 23 21 20 19 17 17 17 19 22 25 24 23 21 18 15 14 14 13 12 11 10 9 9 9 10 9 8 8 9 9 10 10 10 12 13 14 15 16 16 14 13 13 13 12 12 12 12 13 13 15 16 17 18 20 21 22 23 25 26 27 28 28 29 30 31 33 35 35 35 36 36 37 37 39 40 40 41 42 42 42 45
12 16 17 18 19 21 21 20 18 17 16 14 14 13 14 18 23 24 23 20 17 14 14 14 12 11 10 9 9 10 9 9 9 9 9 9 10 10 10 12 13 13 15 16 16 15 14 14 13 12 12 12 12 13 14 15 16 17 19 20 21 23 24 24 25 26 27 28 28 30 30 31 35 37 36 36 37 37 37 38 41 41 41 42 42 42 44 46
10 15 17 18 20 21 20 18 17 16 15 14 13 13 15 20 23 22 21 19 16 14 13 12 11 10 10 9 9 10 10 10 9 9 9 10 11 11 11 12 13 14 15 15 15 15 14 14 14 13 13 13 13 14 15 16 17 18 19 20 21 23 24 24 25 26 27 29 30 32 30 29 35 38 38 38 38 38 38 40 42 42 42 42 43 43 45 47
9 15 18 19 20 20 18 18 17 16 15 14 14 17 20 20 20 20 19 17 15 13 13 12 11 10 10 9 9 9 10 10 10 9 9 10 11 11 12 13 14 15 15 15 15 15 14 14 14 14 14 14 15 16 17 17 18 19 20 21 21 23 24 24 25 26 28 30 31 33 31 28 34 39 39 39 38 38 38 41 43 42 42 43 43 45 46 47
9 14 19 20 20 19 19 18 17 16 15 15 18 21 21 20 20 20 19 17 15 13 13 12 11 11 10 9 9 9 10 11 10 10 10 11 11 11 12 13 14 14 15 15 15 15 15 15 15 15 15 16 17 18 18 19 20 20 21 22 23 24 26 26 27 28 29 30 31 34 32 30 34 39 40 40 39 38 39 42 43 42 42 43 44 46 47 47
10 13 17 21 21 20 20 18 17 17 15 17 21 22 21 20 20 20 19 17 15 13 13 12 11 11 10 9 9 10 11 11 10 10 11 11 11 11 12 13 14 15 15 15 16 16 16 16 16 16 17 18 19 19 20 20 21 22 23 24 24 25 27 28 29 30 31 32 33 35 35 32 35 40 41 40 39 38 39 42 43 42 43 44 45 46 46 47
12 13 15 20 22 22 21 19 19 18 17 20 23 22 21 20 21 20 18 16 14 13 13 11 11 11 10 9 10 10 11 11 10 10 11 11 11 11 12 13 14 15 15 16 16 16 16 17 17 18 19 19 20 21 21 22 22 23 24 25 26 27 29 30 31 32 33 35 35 38 37 34 36 41 41 41 40 38 39 42 43 43 44 45 46 46 46 46
13 15 16 20 22 22 22 21 21 20 20 23 24 23 22 21 21 20 17 15 14 13 13 12 11 11 10 10 10 10 10 10 10 10 11 11 11 11 12 14 15 16 16 16 16 17 17 18 18 19 19 20 21 21 22 23 23 25 25 27 28 29 31 32 33 34 35 36 37 39 38 35 38 41 42 42 42 41 41 42 43 44 44 45 45 45 45 46
15 16 17 20 22 23 22 22 21 21 22 24 25 24 23 22 22 19 17 16 15 14 13 12 11 11 11 10 10 10 10 10 10 10 11 11 10 11 12 14 15 16 16 17 17 17 18 19 19 20 20 21 22 23 23 24 26 27 27 29 30 30 32 34 35 35 36 37 38 40 40 37 39 42 42 43 44 43 42 43 44 44 44 45 45 45 45 45
17 18 19 20 23 24 23 22 21 22 24 25 25 23 23 23 22 19 17 16 15 14 13 12 11 11 10 10 10 10 10 9 10 11 11 11 11 11 12 13 15 16 16 17 17 18 18 19 19 20 21 22 23 24 26 27 28 29 30 31 32 32 33 35 36 37 38 39 39 41 41 39 40 42 42 43 45 44 44 44 44 43 44 44 44 44 44 45
19 19 20 21 24 26 25 23 23 24 26 26 25 23 22 22 21 19 17 16 15 14 12 12 11 11 10 10 10 9 9 10 11 11 12 12 12 12 12 13 15 16 16 17 17 18 19 20 20 22 23 24 25 27 28 29 30 31 32 32 34 34 35 36 37 38 39 40 40 42 42 40 41 43 43 44 44 44 44 44 44 43 43 43 43 44 44 44
19 19 20 22 25 27 26 22 22 26 27 28 26 23 22 22 20 18 16 15 14 13 12 12 11 11 11 10 9 9 9 10 11 11 11 12 12 12 12 14 16 17 18 18 19 20 21 21 22 24 25 26 28 29 30 32 32 33 34 34 35 36 37 37 39 39 40 41 41 43 44 42 41 43 44 44 44 44 43 43 43 42 42 43 43 43 43 43
18 19 21 23 25 28 27 22 22 26 28 29 28 24 22 21 20 17 15 14 13 12 12 12 12 11 10 10 9 9 9 10 11 11 11 12 12 12 13 15 17 18 19 20 21 22 23 24 25 26 27 29 30 31 32 33 34 35 35 36 37 38 39 39 40 41 41 42 43 45 46 44 41 41 43 44 45 44 43 43 42 42 42 42 42 43 43 42
17 18 21 24 25 28 28 23 22 26 29 30 29 25 23 21 20 17 15 13 12 12 12 12 12 10 9 9 9 9 10 11 11 11 11 12 12 13 14 16 18 19 20 22 23 24 25 26 27 28 29 31 32 33 34 35 35 36 37 38 39 40 40 41 41 41 43 45 46 47 49 47 41 39 43 46 45 44 43 42 42 42 42 42 42 43 43 43
16 18 21 24 24 27 29 25 23 25 27 29 26 24 23 23 20 17 15 13 12 12 12 12 11 10 9 9 9 9 10 10 11 11 11 13 13 14 15 17 19 21 22 23 24 25 26 27 29 30 31 32 33 34 35 36 36 37 39 40 40 41 41 42 42 43 45 47 48 49 50 49 43 39 44 48 46 44 43 43 44 43 42 42 43 43 43 43
16 17 20 22 23 26 28 25 23 23 25 26 24 23 24 23 20 17 15 13 12 12 12 11 10 9 9 8 9 10 10 10 11 11 12 14 15 16 17 19 21 23 24 25 26 27 28 29 30 32 32 34 35 36 37 37 38 38 40 41 41 42 42 43 44 46 48 49 50 51 51 50 45 41 45 47 45 45 45 44 44 43 42 42 43 43 43 44
16 17 19 20 20 22 24 23 21 22 23 24 24 24 24 22 19 17 15 12 11 12 11 11 10 10 10 9 9 9 10 10 11 12 13 14 16 17 19 21 22 24 25 26 27 28 29 30 32 33 34 35 36 37 38 38 39 40 40 41 42 42 43 45 47 48 50 52 52 52 52 51 46 41 44 45 44 46 46 45 44 43 43 42 42 42 43 45
17 18 19 21 20 20 21 20 20 22 23 23 24 24 23 21 18 16 14 12 11 11 12 11 10 10 10 10 10 10 10 11 11 12 14 15 17 19 21 23 24 26 27 28 29 30 31 32 33 34 35 36 37 38 39 39 41 41 41 42 42 44 45 47 49 51 52 53 53 52 50 51 47 42 43 45 45 47 46 44 44 43 43 42 40 41 42 44
18 18 17 20 21 20 22 21 20 23 24 23 23 23 22 19 16 14 13 11 11 11 12 12 11 11 10 10 11 11 11 12 13 14 15 17 19 21 23 24 26 27 28 29 30 31 32 33 34 35 36 37 38 39 40 40 41 42 42 43 44 45 47 49 51 52 54 53 52 51 50 51 47 40 41 45 46 49 48 45 44 44 42 41 40 41 43 45
19 18 16 20 21 20 22 21 21 24 26 24 23 22 20 17 14 12 12 12 11 11 12 14 13 12 11 11 11 12 13 14 15 16 18 19 21 23 24 26 27 28 29 31 32 33 34 35 36 37 37 38 39 39 40 41 42 43 44 45 46 48 49 51 53 53 54 53 52 52 51 52 48 39 40 46 48 50 49 45 44 43 43 42 43 44 46 47
18 17 16 20 21 19 19 20 21 24 25 24 22 21 19 16 13 12 12 12 12 12 13 15 14 13 13 12 12 12 13 15 17 18 20 21 23 24 26 27 28 30 31 32 34 35 35 36 37 38 38 39 40 40 41 42 43 44 45 47 48 50 52 53 54 53 53 52 52 53 52 53 49 39 39 45 48 50 49 45 44 44 44 45 46 47 48 49
16 15 14 16 17 16 16 17 19 22 23 22 21 20 17 14 13 13 13 13 14 14 14 14 14 13 13 12 12 13 14 16 18 20 21 22 24 25 27 29 30 31 32 33 35 36 36 37 38 38 39 39 40 41 42 43 44 45 47 49 51 53 54 55 54 53 53 53 54 54 53 53 48 39 37 43 47 49 48 46 45 45 46 47 47 48 49 50
13 15 15 16 16 15 15 15 17 18 19 19 18 15 13 13 13 13 14 14 15 16 16 15 14 14 13 13 13 15 16 18 20 22 23 24 25 26 28 30 32 34 35 35 36 37 37 38 38 38 39 39 40 42 43 44 45 47 49 52 54 55 56 55 54 53 54 54 54 54 54 52 45 38 37 40 43 46 47 47 47 47 49 50 48 47 49 51
13 16 18 17 16 16 15 15 16 16 16 15 13 12 13 13 13 13 14 16 16 16 16 16 15 14 14 14 15 17 19 20 22 23 24 25 26 27 29 32 34 36 37 38 38 39 39 38 38 39 39 40 41 42 44 45 47 49 50 53 54 55 56 55 54 54 54 54 55 54 54 51 43 37 34 35 39 44 46 48 49 50 52 52 50 49 50 52
14 16 18 17 16 16 15 15 17 16 14 13 13 13 13 12 13 14 16 17 17 16 16 17 16 15 15 15 17 19 20 22 23 24 25 26 27 29 31 33 35 37 38 39 40 40 40 39 39 40 40 41 42 43 45 47 49 50 51 53 54 54 54 55 54 55 55 55 55 54 53 49 42 35 30 31 38 44 44 46 50 52 52 53 53 53 53 55
15 15 16 16 16 16 16 16 16 15 13 13 13 13 12 13 14 16 17 17 17 17 17 18 17 16 16 17 18 20 22 23 23 25 26 27 29 31 33 35 36 37 38 39 40 41 41 40 40 41 42 42 44 45 47 48 50 51 52 53 53 52 53 53 54 55 56 57 56 53 53 48 39 32 28 30 37 43 44 47 50 51 51 52 54 55 56 58
15 15 15 15 15 15 15 14 14 13 12 13 12 12 13 14 16 17 17 17 17 17 18 18 18 17 17 18 20 21 23 24 25 26 27 29 31 33 34 36 37 38 39 39 40 41 41 41 41 42 43 44 46 47 48 49 50 52 52 52 52 52 52 53 55 55 56 58 57 54 52 47 37 30 28 31 38 42 45 48 49 48 49 51 53 56 58 59
14 14 13 13 13 12 12 12 11 11 11 11 12 13 14 16 16 16 16 16 17 17 17 18 18 18 18 19 21 22 24 25 26 27 29 31 33 34 35 37 37 38 39 40 41 41 42 43 43 43 44 45 47 48 49 49 49 50 51 51 51 51 52 53 55 56 56 58 58 55 51 45 37 32 32 37 43 44 46 47 47 47 49 51 54 56 58 59
12 12 11 10 9 9 9 10 10 11 11 11 12 14 15 15 15 15 15 16 17 17 17 18 18 18 19 20 22 24 25 26 27 29 31 33 34 35 36 37 38 39 40 41 42 43 44 45 45 45 46 47 48 49 49 48 49 49 50 49 50 51 52 53 55 55 55 57 58 56 51 43 37 34 38 46 50 50 50 51 51 51 52 54 56 58 60 60
10 9 7 7 6 6 8 9 10 10 11 11 12 13 13 14 15 15 16 16 16 16 17 18 19 20 21 22 24 25 26 27 29 31 34 35 35 36 37 38 39 40 41 42 44 45 46 48 49 48 47 48 48 48 48 48 48 49 49 49 49 50 51 52 54 54 54 56 58 58 52 41 36 38 45 51 53 54 56 56 56 56 56 58 59 61 62 63
8 6 5 5 6 7 7 9 10 10 11 11 12 12 12 14 15 16 17 16 17 17 18 20 21 22 23 24 26 26 27 28 31 33 35 36 37 38 39 40 41 42 43 45 46 47 48 50 50 48 47 47 48 48 47 47 48 48 48 48 48 49 49 51 53 52 53 54 56 58 53 42 38 43 50 53 55 56 58 59 59 59 59 60 61 63 64 65
8 6 6 6 6 7 7 9 10 10 11 11 12 12 13 14 15 16 17 17 18 19 20 21 23 24 25 26 27 28 29 31 33 35 36 37 38 39 40 42 43 44 45 46 47 48 49 49 49 48 47 47 47 46 46 47 47 48 47 47 47 47 48 50 53 52 53 53 52 56 54 44 40 47 52 54 56 57 58 60 60 60 60 61 63 64 65 66
8 8 7 6 6 6 8 9 10 10 11 12 12 13 13 14 16 17 17 18 19 20 21 23 24 25 26 27 28 30 32 34 35 36 37 38 40 41 42 43 44 45 45 46 46 47 48 49 49 48 47 47 46 46 46 46 47 47 46 45 46 46 47 50 52 52 52 52 50 55 57 49 45 51 55 56 58 58 60 61 61 61 61 62 63 65 66 67
9 8 7 6 5 7 8 10 10 10 11 12 13 13 14 15 16 17 18 19 20 21 23 24 25 26 28 29 30 32 35 36 37 38 39 40 41 42 43 43 44 44 44 45 46 47 48 49 49 48 48 46 45 44 45 45 46 45 44 44 45 46 47 49 50 51 52 51 50 54 58 54 51 54 57 58 59 60 61 62 63 63 62 63 65 66 67 68
8 7 7 7 7 8 9 10 10 11 12 13 13 14 15 16 16 18 19 20 22 23 24 25 26 28 29 31 33 34 36 37 38 39 40 41 41 42 42 42 43 44 45 46 47 48 49 49 49 49 49 47 45 45 45 45 45 43 42 43 44 45 46 47 47 49 52 51 51 54 58 56 54 56 59 60 60 61 63 64 65 65 65 66 68 69 70 71
8 7 8 9 9 10 10 11 11 11 12 13 14 15 16 16 18 19 20 21 23 24 25 26 28 29 31 33 34 36 37 38 39 39 39 40 41 41 42 42 43 44 45 46 47 48 49 48 47 48 49 48 47 47 47 47 45 44 43 43 44 45 46 47 48 50 52 54 54 55 58 57 55 57 60 61 63 65 66 66 67 67 67 69 71 72 73 75
9 9 9 10 10 11 11 11 11 12 13 14 15 16 17 17 19 20 21 23 24 25 27 28 30 31 33 34 35 36 36 37 38 38 39 40 41 41 42 43 44 45 46 47 47 48 48 46 45 46 45 44 44 44 46 46 45 44 44 44 45 46 47 47 49 50 53 55 55 55 59 60 58 59 62 64 66 68 69 69 70 69 70 72 74 75 77 79
9 10 10 10 10 10 11 11 12 12 13 15 16 17 18 19 20 21 23 24 25 27 28 30 31 32 33 34 34 35 36 36 37 38 39 40 41 41 42 43 44 45 46 47 47 47 47 45 44 44 42 41 41 42 42 43 43 43 44 45 45 47 48 48 49 50 53 56 56 56 59 62 61 62 65 67 68 69 70 71 71 72 72 74 76 78 80 82
9 9 9 10 10 10 11 12 13 14 15 16 17 18 19 20 21 23 24 25 26 27 28 29 30 31 32 33 34 34 35 36 37 37 38 39 41 42 43 43 44 45 45 46 45 45 45 44 42 42 40 38 39 40 40 41 42 43 44 45 46 46 48 48 48 50 52 55 57 57 59 62 63 64 66 68 69 71 72 72 72 73 75 77 79 81 83 84
9 9 9 9 10 11 12 13 14 15 16 17 18 19 20 21 22 23 24 25 26 27 28 29 30 31 31 32 33 34 35 36 37 38 39 40 41 42 43 43 43 44 43 43 43 42 42 41 40 40 37 36 38 39 40 41 41 42 44 44 45 46 48 49 48 49 51 54 57 59 61 62 64 65 67 68 69 71 73 73 74 76 78 80 82 84 86 88
8 8 9 10 11 12 13 14 15 16 17 18 19 20 21 21 22 23 24 25 25 26 27 28 29 30 30 32 33 34 35 37 38 39 40 40 41 42 42 41 41 41 40 40 40 40 40 39 39 39 37 36 37 38 39 41 42 43 43 44 45 47 48 49 49 49 51 56 59 61 63 63 63 65 66 67 69 72 75 76 77 79 81 83 86 88 90 92
7 9 10 11 12 13 14 15 16 17 18 18 19 20 20 21 22 22 23 24 25 25 26 27 28 29 31 32 33 35 36 37 38 39 40 40 40 40 40 39 39 38 38 38 38 38 39 39 39 40 38 37 38 39 39 40 42 43 44 44 45 47 49 51 52 52 54 59 61 62 64 64 64 65 66 66 69 73 77 80 82 83 85 87 90 92 93 93
8 10 11 12 13 13 14 15 16 17 18 18 19 19 19 20 21 21 22 23 24 25 26 27 29 30 32 33 34 36 37 38 38 38 38 38 37 37 37 37 37 38 38 38 38 38 40 40 41 41 40 38 38 39 38 40 43 44 45 45 47 49 51 53 55 54 55 60 63 63 64 65 65 66 68 69 71 75 79 83 86 87 89 91 92 92 92 91
Wind_Direction
208 210 213 215 216 216 215 219 223 226 229 229 231 232 237 237 215 195 210 208 190 183 180 178 176 174 173 170 171 172 173 174 176 177 173 181 182 165 180 253 268 280 290 294 295 295 295 294 289 286 285 284 283 283 285 287 289 292 297 301 303 306 307 309 311 312 314 318 321 324 328 331 330 329 329 329 328 327 324 324 323 323 322 321 321 320 319 318
208 212 214 216 217 217 216 219 223 226 228 231 232 233 235 238 223 205 218 218 196 188 186 183 181 178 177 175 174 174 177 181 185 185 181 189 186 169 250 270 280 290 297 302 305 306 304 300 295 291 290 289 289 290 291 292 295 299 301 302 302 304 307 310 312 315 320 325 328 329 330 330 328 326 325 325 324 323 321 322 322 321 320 319 319 319 318 317
208 212 216 217 217 217 218 220 223 226 228 230 231 232 233 235 229 215 221 221 201 192 190 185 183 183 181 180 180 179 181 187 194 199 196 199 193 213 273 279 287 295 301 307 308 306 301 298 297 294 293 294 296 297 297 297 298 300 301 301 302 307 312 315 318 323 329 332 331 330 328 326 324 323 322 321 320 319 319 320 320 319 318 317 317 317 317 317
209 212 215 217 218 218 220 221 224 227 228 230 231 233 232 234 234 229 228 221 204 195 188 183 185 186 184 183 186 187 187 192 203 216 216 216 220 262 284 288 293 300 304 306 305 302 300 301 300 299 298 299 300 301 300 299 300 301 301 302 308 316 321 324 327 330 332 332 329 325 323 321 321 320 320 319 318 318 318 318 317 316 316 315 315 315 316 316
213 215 215 217 218 220 221 222 225 227 230 231 231 233 234 235 235 237 236 222 206 197 186 184 188 185 186 190 194 195 195 202 212 224 234 236 247 281 289 291 296 300 303 307 307 305 306 307 305 304 303 303 304 304 304 302 304 306 306 312 322 327 328 330 330 329 328 326 323 320 319 318 318 318 318 318 317 317 316 315 314 314 313 314 314 314 315 315
219 219 218 218 219 222 224 225 227 228 230 230 232 234 235 235 231 233 235 219 206 197 185 187 189 184 190 199 203 203 201 208 218 229 241 247 262 282 286 291 297 302 307 311 311 312 312 311 309 309 309 308 309 309 307 308 313 314 317 326 331 330 330 329 327 325 323 320 318 317 316 316 316 317 317 315 315 316 314 312 312 311 311 312 312 313 314 315
224 224 223 222 222 226 227 229 229 227 228 230 235 237 238 237 230 230 227 211 202 193 186 189 189 187 193 202 208 209 208 214 222 232 244 253 267 279 284 293 301 307 312 313 315 317 315 314 314 314 313 313 314 312 313 318 322 322 326 330 330 328 327 325 323 321 319 317 316 315 314 315 316 317 316 313 314 315 312 311 310 309 309 310 311 312 314 314
229 230 229 225 224 227 230 232 232 230 230 232 237 241 244 240 234 235 221 202 198 190 187 190 189 190 196 202 207 214 220 221 224 235 249 259 270 283 290 298 304 310 313 315 319 320 317 317 317 317 315 317 317 316 320 325 325 325 328 328 327 326 323 321 319 317 315 314 314 314 315 316 315 316 315 313 314 314 311 310 308 308 308 310 311 313 314 314
232 233 231 227 223 225 229 231 232 231 230 234 238 239 241 239 238 233 210 194 194 187 187 190 190 193 197 203 209 219 228 228 228 239 256 265 276 289 296 300 306 311 315 319 322 320 318 319 318 318 319 320 319 318 323 327 326 326 327 326 325 323 320 319 317 315 314 314 315 315 316 317 316 316 316 314 314 313 311 310 308 308 309 310 312 313 313 313
228 225 225 221 217 219 224 228 229 231 233 235 233 231 238 236 227 211 191 189 191 183 187 191 192 196 201 207 214 222 228 230 233 246 262 271 282 293 296 301 307 313 319 322 321 318 319 320 320 321 323 322 318 319 323 326 326 326 326 325 324 321 318 318 316 316 316 316 318 318 319 319 316 315 315 314 314 313 312 310 309 309 310 311 312 313 312 312
219 211 209 208 207 213 219 224 227 228 228 223 219 224 225 208 192 182 181 187 184 181 189 191 193 199 206 213 222 227 227 231 238 252 267 276 285 292 296 302 310 318 323 322 320 320 322 323 324 323 324 322 319 322 325 325 325 324 325 325 324 321 319 320 320 320 320 320 320 320 322 321 315 314 314 314 313 313 313 311 309 310 311 312 313 313 312 312
210 203 201 202 204 209 213 217 220 219 216 212 213 210 196 180 173 174 180 181 177 182 190 191 196 202 210 217 228 234 233 234 241 255 268 277 284 290 297 305 313 321 323 321 322 324 326 328 327 325 325 325 325 326 326 325 325 325 326 326 326 322 321 323 323 323 322 321 321 319 322 321 315 314 314 313 314 314 315 312 310 311 313 313 312 312 312 313
206 201 201 204 206 208 209 211 214 216 212 208 205 197 188 180 175 177 180 177 176 184 189 193 199 205 212 219 231 241 241 239 243 256 268 276 283 291 301 309 316 321 322 323 327 329 332 333 331 329 329 330 331 330 328 328 328 328 327 325 325 322 321 323 323 322 320 319 319 316 320 323 315 313 313 314 316 317 316 312 311 314 314 313 313 313 313 314
209 203 203 205 207 206 206 209 211 214 213 203 195 191 188 185 182 182 181 177 178 185 190 196 201 206 214 223 234 241 243 242 246 258 268 275 283 292 304 312 316 320 323 327 332 333 336 336 333 333 334 335 334 333 330 329 330 328 326 322 322 321 320 321 320 319 318 318 318 316 321 325 317 313 314 316 319 320 316 312 314 316 315 314 313 314 314 314
213 209 207 206 207 205 205 206 203 208 210 197 189 188 188 188 187 186 183 179 180 186 191 197 203 208 216 226 234 238 242 244 250 261 269 275 282 293 304 311 317 322 327 332 335 336 337 336 336 336 337 337 335 333 330 330 329 325 322 321 322 321 319 319 318 319 319 320 321 319 322 327 318 314 316 318 321 321 317 314 316 317 315 314 314 314 314 314
218 213 210 208 207 205 204 200 196 201 202 191 187 187 188 190 191 189 185 181 182 187 193 199 206 213 220 228 233 238 241 245 254 264 271 277 284 295 304 311 318 325 329 333 334 335 337 335 336 337 338 338 334 331 330 329 326 322 321 321 322 321 319 319 320 320 321 322 322 320 322 326 319 315 318 320 322 321 318 316 317 317 315 315 314 314 314 314
227 215 211 210 208 205 201 194 193 199 196 190 189 189 190 192 194 192 187 184 185 190 196 201 209 217 225 232 236 240 244 249 257 266 273 280 289 299 308 314 321 326 328 330 332 334 334 334 336 337 336 335 331 329 328 325 323 322 322 322 322 322 320 320 321 321 321 321 322 319 322 326 320 318 320 321 321 321 319 318 317 316 315 315 314 314 314 314
234 219 213 211 208 204 196 190 194 200 197 195 192 190 191 193 195 193 190 188 189 193 199 204 212 220 228 234 238 243 248 254 262 270 276 283 293 302 310 318 323 326 326 328 330 331 331 332 334 333 332 331 328 327 324 323 323 323 323 322 322 322 320 320 320 321 320 321 322 320 322 325 321 320 321 321 321 320 319 318 316 316 315 315 314 314 314 315
236 224 214 210 207 201 192 189 195 202 202 200 197 193 193 194 195 195 195 193 193 197 202 209 217 224 230 234 238 246 253 262 269 273 277 283 291 299 309 318 322 323 323 324 326 327 328 328 330 329 329 328 326 325 323 324 324 323 323 322 321 321 321 320 320 320 320 320 322 320 322 324 321 320 321 320 320 319 319 318 317 316 315 315 314 314 315 316
235 226 215 208 204 197 191 190 193 202 205 203 200 197 196 197 197 198 199 197 197 199 204 212 219 225 231 236 242 250 260 268 273 275 279 282 287 297 309 317 319 319 319 321 323 324 324 325 327 327 326 326 325 325 324 324 323 322 321 321 320 320 320 320 320 320 319 319 321 320 322 323 321 321 321 320 319 319 319 319 318 317 315 315 314 315 316 316
233 227 216 207 203 197 192 188 190 199 204 204 202 199 199 199 198 201 202 201 200 201 208 216 221 226 233 239 245 256 267 272 275 279 282 284 289 297 308 314 316 317 318 320 321 321 322 324 326 325 324 324 324 324 324 323 321 320 320 320 320 319 319 320 319 319 319 319 320 320 321 323 322 321 321 320 320 321 320 319 318 317 316 315 315 315 316 316
232 226 214 205 204 201 193 185 189 197 202 202 201 198 198 200 199 201 204 204 205 207 214 220 225 229 235 242 250 262 271 274 278 281 283 287 291 299 308 312 314 315 316 318 318 318 320 322 323 323 323 323 323 323 322 321 320 319 319 319 318 318 318 319 319 320 320 319 320 320 321 323 323 323 323 321 322 323 322 320 319 318 316 315 315 316 317 316
231 223 211 202 203 203 195 187 190 197 202 203 200 194 194 199 200 202 206 207 208 212 218 224 230 234 239 248 258 267 273 276 279 281 285 288 292 300 307 310 310 312 314 315 315 316 318 319 320 320 320 321 321 320 320 320 319 319 319 318 318 318 318 319 320 321 321 321 321 320 321 323 325 326 324 322 324 325 323 321 320 318 316 316 317 317 317 316
227 218 206 199 201 204 198 194 197 200 204 206 200 193 195 199 200 205 209 208 208 214 220 226 231 237 244 255 264 271 277 280 282 284 287 290 295 301 305 307 308 310 312 312 313 315 316 317 318 318 319 319 318 318 318 319 319 318 318 318 318 319 319 319 320 320 321 322 321 320 321 322 326 329 326 324 326 326 323 321 320 318 316 317 318 317 316 316
220 209 197 193 199 202 197 196 202 202 201 203 201 197 198 199 201 208 210 207 210 216 219 224 228 236 245 256 266 272 278 283 284 287 291 295 299 302 304 306 307 308 309 310 312 314 315 316 316 316 317 317 317 317 317 317 318 318 318 318 318 319 320 320 320 320 320 321 321 321 321 323 328 331 328 326 326 325 322 321 318 317 318 319 318 316 316 316
212 197 185 184 190 196 195 195 201 202 196 195 197 196 196 198 203 208 208 207 213 216 217 222 227 236 246 255 266 274 280 284 289 292 297 300 302 304 304 305 306 307 308 309 311 313 314 314 314 315 315 316 316 316 317 317 317 318 318 318 318 319 319 319 320 320 320 321 322 322 322 323 328 331 327 327 326 323 321 319 317 316 318 318 317 316 315 315
200 186 180 184 188 193 197 197 199 202 198 193 193 194 196 201 206 207 208 210 214 217 218 220 228 238 248 256 264 274 284 288 292 296 300 302 303 304 304 305 306 307 308 310 311 312 313 313 314 314 315 315 316 316 317 317 317 318 318 318 318 318 319 319 320 320 321 322 322 322 323 323 329 332 329 327 325 321 320 317 315 316 318 317 316 315 314 314
187 180 182 190 194 198 201 202 201 199 199 198 195 196 200 203 205 206 208 212 216 222 221 221 228 235 246 256 261 272 285 290 293 297 300 302 304 304 305 306 307 308 309 309 311 312 312 313 314 314 315 315 315 316 317 317 317 317 317 317 317 317 318 319 320 321 322 322 322 322 322 323 331 337 331 328 324 320 318 315 314 317 317 317 316 315 314 315
181 182 193 196 197 200 204 211 211 200 198 200 198 198 201 200 203 207 209 213 219 226 226 225 230 235 245 256 263 275 286 291 295 298 301 303 304 305 306 306 307 308 309 309 311 311 312 313 313 314 315 315 315 316 316 316 316 317 316 316 316 317 318 319 320 321 321 321 320 321 323 324 331 339 332 327 323 318 315 314 315 318 318 317 319 318 317 317
187 194 199 194 194 199 206 213 213 201 195 197 197 199 200 200 206 211 212 216 221 229 232 231 233 238 248 258 268 279 287 293 298 300 301 303 304 305 306 306 307 308 308 309 310 310 311 312 313 314 314 314 315 315 316 316 316 316 316 316 316 317 318 318 320 320 320 320 320 321 324 325 333 341 333 325 320 315 312 313 316 318 318 319 320 320 318 318
198 201 190 181 186 192 197 200 200 197 193 193 195 197 201 207 215 216 218 222 225 230 234 233 236 242 250 260 270 281 290 297 301 301 301 302 304 306 306 306 307 307 308 309 309 309 311 312 312 313 313 314 315 314 315 315 315 316 316 316 316 317 318 318 319 319 319 320 320 322 324 326 334 342 332 322 316 312 311 314 317 318 318 319 320 320 319 318
195 193 182 176 179 179 181 183 184 187 189 190 194 200 209 218 222 224 227 230 230 233 235 236 241 246 252 262 274 284 292 298 300 300 301 303 304 305 306 307 308 308 308 309 308 309 310 311 312 313 313 313 314 314 314 314 315 316 316 316 316 317 317 318 319 319 319 319 320 322 324 326 336 341 330 320 314 311 312 314 317 318 318 319 320 320 319 319
190 188 178 170 172 173 174 178 180 182 185 190 198 210 219 224 229 233 234 235 235 235 237 240 245 251 258 269 279 286 292 296 298 299 301 303 304 305 306 307 308 308 308 309 309 309 309 311 312 312 312 313 313 313 314 314 315 316 316 316 316 317 317 318 319 318 318 318 319 321 322 326 336 340 329 319 312 309 310 313 316 318 319 320 322 322 321 319
191 185 174 169 172 175 177 180 183 184 189 199 209 215 220 225 231 234 235 238 239 239 242 245 249 256 265 274 281 286 291 293 297 299 301 302 303 305 307 307 307 307 308 308 308 308 309 311 312 312 312 313 313 313 314 314 315 315 315 315 316 317 317 317 318 317 317 318 319 321 321 326 338 339 327 316 308 305 307 311 314 317 320 322 323 323 320 317
185 180 174 174 178 180 181 183 186 192 201 209 213 216 220 226 231 235 238 242 245 245 246 249 254 260 269 277 282 286 290 292 295 297 299 301 303 305 306 306 306 306 307 307 307 308 309 311 312 311 312 313 313 313 313 314 314 314 314 314 315 316 316 316 316 316 317 317 318 320 321 328 339 336 326 315 304 303 308 311 314 317 321 322 321 320 317 316
170 173 173 176 180 182 185 188 195 204 208 210 213 219 226 230 233 238 241 246 249 249 249 252 258 263 269 276 282 285 289 292 295 297 298 301 303 305 306 305 306 306 306 306 307 309 310 310 311 311 312 312 312 312 312 313 313 313 314 314 315 316 316 315 315 315 316 316 318 319 322 331 337 331 323 310 300 303 310 312 315 319 320 320 318 317 316 316
158 163 168 173 178 184 190 196 203 208 210 214 221 227 232 235 237 242 246 251 253 253 253 256 261 267 271 276 280 284 287 291 294 296 299 301 303 305 305 305 305 305 306 307 307 308 309 309 310 310 311 311 311 311 311 312 313 313 313 314 315 315 315 314 314 315 316 315 317 319 324 333 337 327 316 306 303 310 314 315 317 319 319 318 318 317 316 315
157 159 164 172 179 189 200 206 209 213 218 224 228 230 233 238 243 247 251 253 255 256 259 261 264 268 273 276 279 283 287 291 294 297 300 302 304 305 304 304 305 305 306 307 307 307 307 308 309 310 310 310 310 310 311 312 312 313 314 314 315 315 315 314 314 315 315 315 317 320 325 336 339 326 313 309 312 318 319 319 320 320 320 321 319 318 316 316
158 158 166 180 195 211 218 219 220 222 226 229 231 233 237 243 248 251 254 256 258 260 263 266 269 270 274 278 281 285 288 292 295 298 301 303 304 304 304 305 305 306 306 306 306 307 307 308 309 310 311 311 310 311 311 312 313 313 313 314 314 314 314 313 313 313 313 314 318 320 325 338 342 326 315 315 319 322 321 321 322 322 322 322 320 318 317 317
166 174 190 203 219 230 231 229 227 227 230 233 237 239 242 248 253 256 258 261 263 265 266 269 272 275 278 282 284 287 290 294 298 300 303 304 304 304 304 305 305 306 306 306 306 306 307 308 309 311 312 311 310 311 312 313 313 313 313 314 314 313 312 313 312 312 312 314 318 319 323 339 342 324 317 319 320 321 321 321 322 322 322 321 320 319 318 318
185 199 212 220 230 237 236 233 232 234 238 241 244 247 249 254 259 262 264 266 267 269 270 272 276 279 282 285 287 290 294 297 301 302 304 304 304 304 304 305 305 305 306 306 306 307 308 308 309 311 311 310 310 312 313 313 313 312 313 313 313 312 312 312 312 313 312 315 319 316 320 338 340 322 318 320 319 320 320 319 320 321 322 322 320 319 318 319
199 209 219 228 235 240 240 239 240 243 248 251 254 257 259 261 264 267 270 271 272 274 276 278 281 283 286 290 293 296 298 300 302 303 304 304 304 304 304 305 305 306 307 307 307 307 307 308 309 310 310 310 312 313 314 313 311 312 312 312 311 311 312 311 312 314 314 317 319 315 319 334 334 321 319 320 319 319 319 319 320 321 322 322 320 319 318 318
208 213 221 235 244 248 248 248 248 252 257 261 263 265 267 268 270 272 274 276 278 280 281 284 287 289 293 295 297 299 301 301 303 304 304 304 304 304 305 306 306 307 307 307 307 307 307 307 308 309 310 311 313 313 312 310 310 311 311 311 311 311 311 312 313 314 315 318 319 317 320 329 329 322 320 320 319 319 319 319 321 321 322 321 319 318 317 317
213 217 230 248 256 256 256 256 258 260 264 268 271 272 274 275 276 278 280 281 283 284 287 289 292 295 297 298 300 301 302 302 303 304 304 304 304 305 306 307 307 307 307 307 307 307 308 308 309 310 311 313 314 312 310 310 311 312 312 311 311 311 312 314 315 315 317 319 319 318 320 325 325 322 320 319 319 319 319 321 322 322 322 320 318 317 317 316
221 233 248 259 261 259 261 263 265 269 272 276 278 279 280 281 282 284 286 287 289 291 293 295 297 298 300 300 301 302 303 304 304 305 305 305 305 306 307 307 307 307 308 308 308 308 308 309 311 313 314 315 315 314 313 313 314 314 314 313 313 314 315 317 318 318 320 320 320 320 320 322 324 322 319 319 320 320 321 321 321 322 321 320 318 317 317 316
240 253 260 263 263 264 267 270 273 278 282 283 284 285 286 288 290 291 293 294 296 297 299 300 301 301 301 302 303 304 304 304 305 305 305 306 306 307 307 308 308 308 308 308 308 308 309 311 313 314 314 316 316 314 314 316 316 316 316 316 318 319 319 320 321 321 321 320 321 321 319 320 323 321 319 320 321 321 321 320 320 320 320 319 318 318 318 317
253 260 263 265 267 271 274 278 282 286 289 291 292 293 294 296 298 298 299 300 301 302 302 302 302 302 303 303 304 304 304 305 305 306 307 307 308 309 309 309 309 309 309 308 308 310 311 313 314 313 314 316 315 314 315 317 318 318 318 319 321 322 322 322 322 322 321 319 320 321 318 319 322 321 320 321 320 320 319 319 319 320 319 319 318 318 318 317
255 258 264 270 274 278 281 285 289 293 296 298 299 300 300 301 301 302 303 303 303 304 304 304 303 303 304 304 305 305 306 306 307 308 309 309 310 310 310 310 310 309 309 310 311 312 314 315 314 315 317 318 317 318 319 320 320 320 320 321 323 323 322 322 322 322 320 318 318 319 319 320 321 321 321 321 321 320 319 319 320 320 319 319 318 317 316 315
257 263 273 279 283 286 288 292 295 298 300 301 301 301 302 303 303 304 305 305 305 305 305 305 305 305 306 306 307 308 308 309 310 310 311 311 311 311 311 311 311 311 311 313 314 315 316 317 317 320 322 322 321 322 323 322 322 321 320 322 323 322 321 322 322 321 319 317 317 318 319 320 321 321 321 321 321 320 319 319 320 320 319 318 317 316 316 316
267 276 284 288 291 293 295 297 299 300 302 302 302 303 304 305 306 306 306 306 306 307 307 307 308 308 309 310 310 311 312 312 312 313 313 313 313 312 312 313 313 314 315 316 317 318 319 320 321 323 326 327 325 325 325 324 323 321 321 323 323 321 321 321 320 320 318 317 318 319 320 321 321 321 321 321 320 319 319 319 319 319 318 317 317 317 317 317
283 288 292 293 294 296 297 299 300 301 303 304 305 306 307 307 308 308 308 308 308 309 309 310 311 311 312 313 313 314 314 315 315 315 315 315 315 315 316 316 317 318 319 320 321 321 321 322 323 325 328 330 328 327 327 325 322 320 321 322 322 321 320 320 320 321 321 319 319 321 321 321 321 320 319 319 319 319 319 319 319 319 319 319 319 319 319 318
290 293 294 294 296 298 299 301 302 303 305 306 307 308 308 309 309 309 310 311 310 311 312 313 313 314 315 316 317 317 318 318 318 318 317 317 318 319 319 319 320 320 321 322 323 323 323 324 325 326 329 331 330 328 327 324 320 319 320 322 322 320 320 320 322 324 324 322 322 322 322 321 320 320 319 319 320 321 321 320 320 321 321 320 320 320 319 319